• In Hungary
  • List of Countries
  • For 7 days
  • Water Temperature
  • Satellite Maps
  • Weather Map
  • News
  • Weather Widgets
  • user-avatar
    Login

    Hourly Weather Kopylova

    Today, 20 October, Saturday

    Time Temperature Precipitation Wind Pressure Humidity
    00:00 +3°C° 0 mm 1 mps 702 mmHg 89%
    01:00 +3°C° 0 mm 1 mps 702 mmHg 88%
    02:00 +3°C° 0 mm 1 mps 702 mmHg 88%
    03:00 +3°C° 0 mm 1 mps 702 mmHg 87%
    04:00 +3°C° 0 mm 1 mps 701 mmHg 87%
    05:00 +3°C° 0 mm 1 mps 701 mmHg 86%
    06:00 +3°C° 0 mm 1 mps 701 mmHg 86%
    07:00 +3°C° 0 mm 1 mps 702 mmHg 85%
    08:00 +4°C° 0.1 mm 1 mps 702 mmHg 82%
    09:00 +4°C° 0.1 mm 1 mps 702 mmHg 80%
    10:00 +5°C° 0.1 mm 1 mps 702 mmHg 77%
    11:00 +5°C° 0.3 mm 1 mps 702 mmHg 77%
    12:00 +6°C° 0.3 mm 1 mps 702 mmHg 77%
    13:00 +5°C° 0 mm 1 mps 702 mmHg 81%
    14:00 +4°C° 0.4 mm 2 mps 702 mmHg 83%
    15:00 +4°C° 0.4 mm 2 mps 703 mmHg 84%
    16:00 +4°C° 0.4 mm 2 mps 703 mmHg 86%
    17:00 +3°C° 0.2 mm 2 mps 703 mmHg 88%
    18:00 +3°C° 0.2 mm 2 mps 703 mmHg 90%
    19:00 +2°C° 0 mm 3 mps 703 mmHg 90%
    20:00 +1°C° 0.1 mm 3 mps 703 mmHg 90%
    21:00 +1°C° 0.1 mm 3 mps 704 mmHg 90%
    22:00 +1°C° 0.1 mm 3 mps 704 mmHg 90%
    23:00 +1°C° 0 mm 3 mps 704 mmHg 90%

    Tomorrow, 21 October, Sunday

    Time Temperature Precipitation Wind Pressure Humidity
    00:00 +1°C° 0 mm 3 mps 704 mmHg 89%
    01:00 0°C° 0 mm 3 mps 704 mmHg 89%
    02:00 0°C° 0 mm 3 mps 704 mmHg 89%
    03:00 0°C° 0 mm 3 mps 704 mmHg 89%
    04:00 +1°C° 0 mm 2 mps 704 mmHg 88%
    05:00 +1°C° 0.1 mm 2 mps 704 mmHg 88%
    06:00 +1°C° 0.1 mm 2 mps 704 mmHg 89%
    07:00 -1°C° 0.1 mm 2 mps 704 mmHg 89%
    08:00 +1°C° 0.1 mm 2 mps 704 mmHg 86%
    09:00 +1°C° 0.1 mm 2 mps 704 mmHg 84%
    10:00 +2°C° 0.1 mm 2 mps 704 mmHg 81%
    11:00 +1°C° 0.1 mm 3 mps 704 mmHg 79%
    12:00 +1°C° 0.1 mm 3 mps 704 mmHg 77%
    13:00 +2°C° 0.1 mm 3 mps 704 mmHg 74%
    14:00 +2°C° 0 mm 3 mps 704 mmHg 74%
    15:00 +1°C° 0 mm 3 mps 704 mmHg 74%
    16:00 +1°C° 0 mm 3 mps 704 mmHg 74%
    17:00 +1°C° 0 mm 2 mps 705 mmHg 78%
    18:00 +1°C° 0 mm 2 mps 705 mmHg 81%
    19:00 -1°C° 0 mm 2 mps 705 mmHg 85%
    20:00 -2°C° 0 mm 2 mps 705 mmHg 86%
    21:00 -1°C° 0 mm 1 mps 705 mmHg 88%
    22:00 -1°C° 0 mm 1 mps 705 mmHg 90%
    23:00 -1°C° 0 mm 1 mps 705 mmHg 90%

    Day after tomorrow, 22 October, Monday

    Time Temperature Precipitation Wind Pressure Humidity
    00:00 -2°C° 0 mm 1 mps 705 mmHg 90%
    01:00 -2°C° 0 mm 1 mps 704 mmHg 90%
    02:00 -2°C° 0 mm 1 mps 704 mmHg 90%
    03:00 -3°C° 0 mm 0 mps 704 mmHg 90%
    04:00 -3°C° 0 mm 0 mps 704 mmHg 90%
    05:00 -3°C° 0 mm 0 mps 704 mmHg 89%
    06:00 -3°C° 0 mm 0 mps 704 mmHg 89%
    07:00 -3°C° 0 mm 0 mps 704 mmHg 89%
    08:00 -1°C° 0 mm 1 mps 704 mmHg 79%
    09:00 +1°C° 0 mm 1 mps 703 mmHg 70%
    10:00 +3°C° 0 mm 1 mps 703 mmHg 60%
    11:00 +4°C° 0 mm 1 mps 703 mmHg 57%
    12:00 +5°C° 0 mm 1 mps 703 mmHg 53%
    13:00 +6°C° 0 mm 1 mps 702 mmHg 50%
    14:00 +5°C° 0 mm 1 mps 702 mmHg 54%
    15:00 +4°C° 0 mm 1 mps 702 mmHg 59%
    16:00 +4°C° 0 mm 1 mps 701 mmHg 63%
    17:00 +3°C° 0 mm 1 mps 701 mmHg 67%
    18:00 +2°C° 0 mm 1 mps 701 mmHg 70%
    19:00 +1°C° 0 mm 1 mps 701 mmHg 74%
    20:00 +1°C° 0 mm 1 mps 701 mmHg 75%
    21:00 0°C° 0 mm 1 mps 701 mmHg 76%
    22:00 0°C° 0 mm 1 mps 701 mmHg 77%
    23:00 0°C° 0 mm 1 mps 700 mmHg 77%

    23 October, Tuesday

    Time Temperature Precipitation Wind Pressure Humidity
    00:00 0°C° 0 mm 1 mps 700 mmHg 78%
    01:00 0°C° 0 mm 1 mps 700 mmHg 78%
    02:00 0°C° 0 mm 1 mps 699 mmHg 77%
    03:00 0°C° 0 mm 1 mps 699 mmHg 77%
    04:00 0°C° 0 mm 1 mps 699 mmHg 76%
    05:00 0°C° 0 mm 1 mps 699 mmHg 75%
    06:00 +1°C° 0 mm 1 mps 699 mmHg 74%
    07:00 +1°C° 0 mm 1 mps 699 mmHg 74%
    08:00 +2°C° 0 mm 1 mps 700 mmHg 68%
    09:00 +4°C° 0 mm 1 mps 700 mmHg 62%
    10:00 +6°C° 0 mm 1 mps 700 mmHg 57%
    11:00 +6°C° 0.1 mm 1 mps 700 mmHg 56%
    12:00 +7°C° 0.1 mm 1 mps 700 mmHg 56%
    13:00 +7°C° 0.1 mm 1 mps 700 mmHg 55%
    14:00 +6°C° 0.4 mm 1 mps 700 mmHg 64%
    15:00 +5°C° 0.4 mm 1 mps 700 mmHg 72%
    16:00 +3°C° 0.4 mm 2 mps 700 mmHg 81%
    17:00 +3°C° 0.3 mm 1 mps 700 mmHg 85%
    18:00 +2°C° 0.3 mm 1 mps 701 mmHg 89%
    19:00 +2°C° 0.3 mm 1 mps 701 mmHg 93%
    20:00 +1°C° 0.1 mm 1 mps 701 mmHg 94%
    21:00 +1°C° 0.1 mm 1 mps 701 mmHg 94%
    22:00 0°C° 0.1 mm 1 mps 702 mmHg 94%
    23:00 0°C° 0 mm 1 mps 702 mmHg 95%

    24 October, Wednesday

    Time Temperature Precipitation Wind Pressure Humidity
    00:00 -1°C° 0 mm 1 mps 702 mmHg 95%
    01:00 -1°C° 0 mm 1 mps 702 mmHg 95%
    02:00 -1°C° 0 mm 1 mps 702 mmHg 95%
    03:00 -1°C° 0 mm 1 mps 703 mmHg 95%
    04:00 -1°C° 0 mm 1 mps 703 mmHg 95%
    05:00 -3°C° 0 mm 2 mps 704 mmHg 94%
    06:00 -3°C° 0 mm 2 mps 704 mmHg 92%
    07:00 -3°C° 0 mm 2 mps 704 mmHg 91%
    08:00 -3°C° 0 mm 2 mps 705 mmHg 85%
    09:00 -2°C° 0 mm 3 mps 705 mmHg 79%
    10:00 -1°C° 0 mm 3 mps 706 mmHg 73%
    11:00 -1°C° 0 mm 3 mps 706 mmHg 71%
    12:00 -1°C° 0 mm 3 mps 706 mmHg 69%
    13:00 0°C° 0 mm 3 mps 706 mmHg 67%
    14:00 -1°C° 0 mm 3 mps 706 mmHg 68%
    15:00 -1°C° 0 mm 3 mps 707 mmHg 69%
    16:00 -2°C° 0 mm 3 mps 707 mmHg 70%
    17:00 -2°C° 0 mm 3 mps 707 mmHg 73%
    18:00 -4°C° 0 mm 3 mps 708 mmHg 76%
    19:00 -5°C° 0 mm 3 mps 708 mmHg 79%
    20:00 -6°C° 0 mm 3 mps 709 mmHg 80%
    21:00 -6°C° 0 mm 3 mps 709 mmHg 80%
    22:00 -6°C° 0 mm 3 mps 709 mmHg 81%
    23:00 -7°C° 0 mm 3 mps 709 mmHg 82%

    25 October, Thursday

    Time Temperature Precipitation Wind Pressure Humidity
    00:00 -7°C° 0 mm 3 mps 709 mmHg 83%
    01:00 -7°C° 0 mm 3 mps 709 mmHg 83%
    02:00 -6°C° 0 mm 2 mps 709 mmHg 85%
    03:00 -6°C° 0 mm 2 mps 709 mmHg 86%
    04:00 -7°C° 0 mm 2 mps 709 mmHg 88%
    05:00 -7°C° 0 mm 2 mps 709 mmHg 89%
    06:00 -7°C° 0 mm 2 mps 709 mmHg 90%
    07:00 -6°C° 0 mm 1 mps 710 mmHg 92%
    08:00 -5°C° 0 mm 2 mps 710 mmHg 84%
    09:00 -4°C° 0 mm 2 mps 710 mmHg 77%
    10:00 -3°C° 0 mm 2 mps 710 mmHg 70%
    11:00 -2°C° 0 mm 3 mps 709 mmHg 66%
    12:00 -1°C° 0 mm 3 mps 709 mmHg 63%
    13:00 -1°C° 0 mm 3 mps 709 mmHg 60%
    14:00 -1°C° 0.1 mm 3 mps 708 mmHg 64%
    15:00 -1°C° 0.1 mm 3 mps 708 mmHg 68%
    16:00 -2°C° 0.1 mm 3 mps 708 mmHg 72%
    17:00 -2°C° 0.1 mm 3 mps 708 mmHg 76%
    18:00 -4°C° 0.1 mm 3 mps 708 mmHg 81%
    19:00 -4°C° 0.1 mm 3 mps 708 mmHg 86%
    20:00 -4°C° 0.2 mm 3 mps 707 mmHg 87%
    21:00 -2°C° 0.2 mm 3 mps 707 mmHg 89%
    22:00 -2°C° 0.2 mm 3 mps 707 mmHg 90%
    23:00 -2°C° 0.1 mm 3 mps 707 mmHg 90%
    Show more